Tracking 22882 objects as of 19-Apr-2021
HD Live streaming from Space Station
objects crossing your sky now

BEIDOU 3M5

Track BEIDOU 3M5 now!
BEIDOU 3M5 is classified as:


NORAD ID: 43207
Int'l Code: 2018-018A
Perigee: 21,514.3 km
Apogee: 21,556.0 km
Inclination: 55.3 °
Period: 773.2 minutes
Semi major axis: 27906 km
RCS: Unknown
Launch date: February 12, 2018
Source: People's Republic of China (PRC)
Launch site: Xichang Space Center, China (XSC)
aabbcc
Your satellite tracking list
Your tracking list is empty




NASA's NSSDC Master Catalog

Two Line Element Set (TLE):
1 43207U 18018A   21107.88755412  .00000049  00000-0  00000-0 0  9998
2 43207  55.2938 126.0953 0007478 321.3179  38.6723  1.86231576 21616
Source of the keplerian elements: AFSPC